This demonstration page uses our WeatherBlox Daily Observations layout. Learn more.

Left ArrowRight Arrow

41.86663, -103.66717

Hourly Observations for April 3, 2016

Temp ( °F °C ) Dew Point ( °F °C ) Humidity (%) Winds ( mph kmh ) Pressure ( in mb ) Visibility ( mi km ) Precip ( " mm )
12:53 am 00:53 Clear 53 11.7 25 -3.9 34 34 W 14 22 29.90 1012 10 16 N/A
1:53 am 01:53 Clear 51 10.6 26 -3.3 38 38 W 13 20 29.89 1012 10 16 N/A
2:53 am 02:53 Clear 39 3.9 28 -2.2 65 65 NNW 9 15 29.91 1013 10 16 N/A
3:53 am 03:53 Clear 38 3.3 28 -2.2 68 68 NW 8 13 29.91 1013 10 16 N/A
4:53 am 04:53 Clear 35 1.7 28 -2.2 76 76 NW 8 13 29.92 1013 10 16 N/A
5:53 am 05:53 Clear 34 1.1 28 -2.2 79 79 NW 6 9 29.92 1013 10 16 N/A
6:53 am 06:53 Sunny 35 1.7 29 -1.7 78 78 NW 10 17 29.94 1014 10 16 N/A
7:53 am 07:53 Sunny 43 6.1 32 undefined 65 65 NW 13 20 29.96 1014 10 16 N/A
8:53 am 08:53 Sunny 52 11.1 34 1.1 50 50 WNW 13 20 29.95 1014 10 16 N/A
9:53 am 09:53 Sunny 59 15 34 1.1 39 39 WNW 16 26 29.96 1014 10 16 N/A
10:53 am 10:53 Sunny 64 17.8 32 undefined 30 30 WNW 16 26 29.95 1014 10 16 N/A
11:53 am 11:53 Sunny 67 19.4 30 -1.1 25 25 NW 16 26 29.91 1013 10 16 N/A
12:53 pm 12:53 Sunny 69 20.6 30 -1.1 23 23 WNW 14 22 29.90 1012 10 16 N/A
1:53 pm 13:53 Mostly Cloudy 67 19.4 28 -2.2 23 23 NNW 14 22 29.90 1013 10 16 N/A
2:53 pm 14:53 Cloudy 67 19.4 28 -2.2 23 23 NW 14 22 29.93 1014 10 16 N/A
3:53 pm 15:53 Mostly Cloudy 68 20 29 -1.7 23 23 NNW 15 24 29.93 1014 10 16 N/A
4:53 pm 16:53 Cloudy 67 19.4 29 -1.7 24 24 N 16 26 29.94 1014 10 16 N/A
5:53 pm 17:53 Mostly Cloudy 67 19.4 30 -1.1 25 25 N 18 30 29.96 1015 10 16 N/A
6:53 pm 18:53 Cloudy 62 16.7 31 -0.6 31 31 NNW 12 19 29.99 1016 10 16 N/A
7:53 pm 19:53 Mostly Cloudy 59 15 33 0.6 38 38 N 14 22 30.00 1016 10 16 N/A
8:53 pm 20:53 undefined 55 12.8 34 1.1 45 45 N 9 15 30.02 1017 N/A N/A
9:53 pm 21:53 Mostly Cloudy 53 11.7 34 1.1 48 48 NNW 6 9 30.02 1017 10 16 N/A
10:53 pm 22:53 Mostly Clear 52 11.1 33 0.6 49 49 N N/A 30.04 1017 10 16 N/A
11:53 pm 23:53 Clear 48 8.9 32 undefined 54 54 undefined N/A 30.06 1018 10 16 N/A

Powered by AerisWeather